Sigfox identifier Datetime Temperature Humidity SNR
00392A3B 2018-10-09 09:23:32 20.5 40 17.3
00392A3B 2018-10-09 08:19:46 20.4 39 17.2
00392A3B 2018-10-09 07:15:52 20.4 39 17.2
00392A3B 2018-10-09 06:11:55 20.4 39 17.2
00392A3B 2018-10-09 05:08:02 20.4 39 17.2
00392A3B 2018-10-09 01:56:22 20.4 39 17.1
00392A3B 2018-10-09 00:52:26 20.4 39 17.1
00392A3B 2018-10-08 23:48:30 20.4 39 17.1
00392A3B 2018-10-08 22:44:32 20.3 39 17
00392A3B 2018-10-08 21:40:38 20.3 39 17
00392A3B 2018-10-08 20:36:47 20.3 39 17
00392A3B 2018-10-08 19:32:49 20.2 39 17
00392A3B 2018-10-08 18:28:58 20.2 39 16.9
00392A3B 2018-10-08 17:24:58 20.2 39 16.9
00392A3B 2018-10-08 16:21:08 20.2 38 16.9
00392A3B 2018-10-08 15:17:11 20.2 38 9.7
00392A3B 2018-10-08 14:13:17 20 38 8.8
00392A3B 2018-10-08 12:05:29 19.9 38 8.5
00392A3B 2018-10-08 11:01:38 19.9 38 8.5
00392A3B 2018-10-08 09:57:45 19.9 38 8.5
00392A3B 2018-10-08 08:53:59 19.9 38 9.8
00392A3B 2018-10-08 06:46:17 19.9 38 9.7
00392A3B 2018-10-08 03:34:38 20 39 9.6
00392A3B 2018-10-08 01:26:53 20.1 40 9.7
00392A3B 2018-10-07 23:19:14 20.2 40 9.6
00392A3B 2018-10-07 22:15:19 20.2 40 9.7
00392A3B 2018-10-07 16:56:02 20.2 40 9.6
00392A3B 2018-10-07 13:44:24 20.2 41 9.7
00392A3B 2018-10-07 11:36:36 20.3 41 9.8
00392A3B 2018-10-07 08:25:03 20.4 41 9.9
00392A3B 2018-10-07 05:13:35 20.4 41 10
00392A3B 2018-10-07 03:05:55 20.4 41 10
00392A3B 2018-10-07 02:02:08 20.4 41 10.2
00392A3B 2018-10-06 22:50:31 20.5 41 10.2
00392A3B 2018-10-06 19:38:50 20.6 42 10.3
00392A3B 2018-10-06 18:34:57 20.6 42 10.3
00392A3B 2018-10-06 16:27:09 20.6 42 10.3
00392A3B 2018-10-06 14:19:18 20.6 42 10.4
00392A3B 2018-10-06 13:15:22 20.6 42 10.5
00392A3B 2018-10-06 11:07:46 20.6 42 10.6
00392A3B 2018-10-06 10:03:52 20.6 42 10.8
00392A3B 2018-10-06 09:00:00 20.6 42 10.9
00392A3B 2018-10-06 06:52:12 20.8 43 10.9
00392A3B 2018-10-06 05:48:16 20.8 43 11.1
00392A3B 2018-10-06 03:40:24 20.8 43 11.5
00392A3B 2018-10-06 02:36:26 20.8 43 8.7
00392A3B 2018-10-06 01:32:32 20.9 43 9
00392A3B 2018-10-06 00:28:40 20.9 43 9.4
00392A3B 2018-10-05 23:24:47 20.9 43 9.1
00392A3B 2018-10-05 22:20:51 21 43 9.4
00392A3B 2018-10-05 21:16:56 21 43 9.7
00392A3B 2018-10-05 20:12:59 21 43 9.9
00392A3B 2018-10-05 18:05:05 21 43 8.2
00392A3B 2018-10-05 13:49:27 21.3 57 0